This is the latest recevied weather packets stored in our database for station/object K6MBY. If no packets are shown the sender has not sent any weather packets the latest 10 day(s).
| Time | Temp. | Humidity | Pressure | Rain* | Wind** | Luminosity | Snow |
|---|---|---|---|---|---|---|---|
| 1777658509 | 12.78° C | 87% | 1021 hPa | 0 mm | - | 691 W/m² | - |
| 1777658206 | 12.22° C | 89% | 1021.2 hPa | 0 mm | - | 739 W/m² | - |
| 1777657903 | 12.22° C | 89% | 1021.1 hPa | 0 mm | - | 544 W/m² | - |
| 1777657600 | 11.67° C | 90% | 1021 hPa | 0 mm | - | 656 W/m² | - |
| 1777657298 | 11.11° C | 92% | 1020.9 hPa | 0 mm | - | 607 W/m² | - |
| 1777656995 | 11.67° C | 92% | 1021.1 hPa | 0 mm | - | 587 W/m² | - |
| 1777656692 | 11.67° C | 94% | 1021 hPa | 0 mm | - | 602 W/m² | - |
| 1777656388 | 11.11° C | 96% | 1020.9 hPa | 0 mm | - | 645 W/m² | - |
| 1777656082 | 10.56° C | 97% | 1021 hPa | 0 mm | - | 607 W/m² | - |
| 1777655779 | 10.56° C | 98% | 1021 hPa | 0 mm | - | 554 W/m² | - |
| 1777655475 | 10.56° C | 98% | 1020.9 hPa | 0 mm | - | 572 W/m² | - |
| 1777655172 | 10.56° C | 99% | 1021.2 hPa | 0 mm | - | 607 W/m² | - |
| 1777654869 | 10° C | 99% | 1021.2 hPa | 0 mm | - | 473 W/m² | - |
| 1777654567 | 10.56° C | 99% | 1021.1 hPa | 0 mm | - | 371 W/m² | - |
| 1777654264 | 10.56° C | 99% | 1021.1 hPa | 0 mm | - | 439 W/m² | - |
| 1777653962 | 9.44° C | 99% | 1021.1 hPa | 0 mm | - | 519 W/m² | - |
| 1777653658 | 9.44° C | 99% | 1021 hPa | 0 mm | - | 393 W/m² | - |
| 1777653355 | 10° C | 99% | 1021.2 hPa | 0 mm | - | 338 W/m² | - |
| 1777653052 | 9.44° C | 99% | 1021.1 hPa | 0 mm | - | 385 W/m² | - |
| 1777652748 | 9.44° C | 99% | 1021.1 hPa | 0 mm | - | 316 W/m² | - |
| 1777652445 | 9.44° C | 99% | 1021.1 hPa | 0 mm | - | 336 W/m² | - |
| 1777652142 | 9.44° C | 99% | 1021.2 hPa | 0 mm | - | 317 W/m² | - |
| 1777651838 | 9.44° C | 99% | 1021.1 hPa | 0 mm | - | 321 W/m² | - |
| 1777651536 | 9.44° C | 99% | 1021.1 hPa | 0 mm | - | 337 W/m² | - |
| 1777651233 | 9.44° C | 99% | 1020.9 hPa | 0 mm | - | 315 W/m² | - |
* Rain latest hour (hover to see other rain measurements)
** Current wind speed in m/s (hover to see current wind gust speed)